Regional Weather Roundup
Issued by NWS Wakefield, VA

Home | Current Version | Previous Version | Graphics & Text | Print | Product List | Glossary On
Versions: 1 2 3 4 5 6 7 8 9 10 11 12 13 14 15 16 17 18 19 20 21 22 23 24 25 26 27 28 29 30 31 32 33 34 35 36 37 38 39 40 41 42 43 44 45 46 47 48 49 50
000
ASUS41 KAKQ 191910
RWRAKQ

REGIONAL WEATHER ROUNDUP
NATIONAL WEATHER SERVICE WAKEFIELD VA
200 PM EST FRI DEC 19 2014

Note: "fair" indicates few or no clouds below 12,000 feet with no
significant weather and/or obstructions to visibility. * = Denotes
station may not report precipitation (e.g., rain,snow,etc.),
thunder or fog.

VAZ042-051-052>054-056-192000-
NORTHERN VIRGINIA

CITY           SKY/WX    TMP DP  RH WIND       PRES   REMARKS
WASH NATIONAL  CLOUDY    41  23  48 NW16G22   30.14F
DULLES         PTSUNNY   37  23  56 NW15      30.12F
FORT BELVOIR   CLOUDY    40  23  52 NW16G22   30.14F
QUANTICO       CLOUDY    40  23  50 N12G26    30.16F
FREDERICKSBRG* MOSUNNY   43  26  50 N10       30.13S
STAFFORD*      PTSUNNY   41  24  50 NW13G18   30.18S
WARRENTON      CLOUDY    40  30  66 NW13      30.13S
CULPEPER*      SUNNY     43  25  49 N10       30.14F
MANASSAS*      CLOUDY    39  27  60 NW12G20   30.14F
LEESBURG*      CLOUDY    37  28  70 N9        30.13F
WINCHESTER     PTSUNNY   37  21  52 NW18G24   30.12F
FRONT ROYAL*   CLOUDY    36  25  64 NW6       30.13S
LURAY*         CLOUDY    41  28  60 NW8       30.14R
$$

VAZ048-049-060>072-079>083-192000-
CENTRAL AND SOUTH CENTRAL VIRGINIA

CITY           SKY/WX    TMP DP  RH WIND       PRES   REMARKS
RICHMOND       MOSUNNY   46  24  42 N8        30.13F
CHESTERFIELD*  CLEAR     45  19  36 W6        30.14S
PETERSBURG*    SUNNY     46  24  42 NW7       30.13S
HANOVER        SUNNY     43  24  47 NW6       30.14F
TAPPAHANNOCK*  SUNNY     43  21  41 N7        30.13F
QUINTON*       CLEAR     43  26  50 CALM      30.12F
CHARLOTTSVILLE SUNNY     44  24  45 N9        30.11S
GORDONSVILLE*  CLEAR     42  24  49 N5        30.11F
ORANGE*        SUNNY     43  27  52 N6        30.14S
LOUISA*        SUNNY     45  27  49 NW5       30.11S
BUMPASS*       CLEAR     41  25  51 NW6       30.12S
FARMVILLE*     SUNNY     53  25  34 CALM      30.11S
CREWE*         CLEAR     45  22  40 NW3       30.12S
FORT PICKETT*  CLEAR     45  25  44 NW3       30.11F
CHASE CITY*    CLEAR     48  29  46 W6        30.11S
CLARKSVILLE*   CLEAR     46  28  49 N6        30.11S
SOUTH HILL*    SUNNY     45  26  47 N3        30.17S
LAWRENCEVILLE* CLEAR     47  28  47 NW5       30.10F
EMPORIA*       SUNNY     45  28  53 N6        30.13F
$$

VAZ088>098-192000-
SOUTHEAST VIRGINIA

CITY           SKY/WX    TMP DP  RH WIND       PRES   REMARKS
NORFOLK        SUNNY     43  26  51 N8        30.12F
VIRGINIA BEACH MOSUNNY   45  28  51 N9        30.11F
NORFOLK NAVAL  MOSUNNY   47  28  47 N6        30.13F
WEST POINT*    SUNNY     47  22  38 W6        30.14F
SALUDA*        FAIR      41  26  54 NW8       30.12S
NEWPORT NEWS   SUNNY     47  25  42 NW5       30.12S
LANGLEY AFB    SUNNY     46  28  49 N6        30.11S
FORT EUSTIS    SUNNY     44  26  49 VRB5      30.11F
WILLIAMSBURG*  SUNNY     48  28  46 W6        30.13F
HR EXEC AP*    CLEAR     46  28  49 NW3       30.14F
FRANKLIN*      SUNNY     45  27  49 CALM      30.12S
WAKEFIELD      SUNNY     46  25  43 CALM      30.12F
$$

VAZ020-022-025-037-045-192000-
WEST CENTRAL AND SOUTHWEST VIRGINIA

CITY           SKY/WX    TMP DP  RH WIND       PRES   REMARKS
STAUNTON*      SUNNY     40  24  53 NE12      30.12S
WAYNESBORO*    CLEAR     39  25  57 NE3       30.09S
HOT SPRINGS VA SUNNY     33  22  64 W14G20    29.99S WCI  23
LYNCHBURG      SUNNY     46  24  42 W6        30.12S
DANVILLE       SUNNY     50  25  37 NW7       30.12F
SOUTH BOSTON*  CLEAR     49  23  36 NW6       30.12S
MARTINSVILLE   SUNNY     51  25  35 N9        30.13S
ROANOKE        MOSUNNY   46  23  40 NW7       30.13S
BLACKSBURG     MOSUNNY   38  24  56 W8        30.13S
DUBLIN*        MOSUNNY   42  27  54 NW7       30.12S
MARION*        MOSUNNY   41  22  45 NW9G18    30.14R
HILLSVILLE*    MOSUNNY   40  23  50 W10       30.08S
RICHLANDS*     CLOUDY    37  22  54 NW5       30.13S
WISE*          PTSUNNY   37  25  60 N3        30.14F
ABINGDON*      PTSUNNY   42  21  43 NW6       30.15S
$$

MDZ021>025-VAZ099-100-192000-
SOUTHERN MARYLAND AND THE DELMARVA PENINSULA

CITY           SKY/WX    TMP DP  RH WIND       PRES   REMARKS
PATUXENT RIVER PTSUNNY   39  24  55 NW17      30.12F
BAY BRIDGE APT   N/A     37  23  56 NW13G18   30.12S
LEONARDTOWN    CLOUDY    37  23  56 NW7       30.14F
DOVER          CLOUDY    40  25  55 NW14      30.07S
GEORGETOWN     CLOUDY    39  24  55 W9G17     30.10S
EASTON         CLOUDY    39  27  60 N12G21    30.14F
CAMBRIDGE      NOT AVBL
SALISBURY      CLOUDY    40  25  55 NW14G20   30.10F
OCEAN CITY     CLOUDY    38  25  59 N10       30.10S
WALLOPS ISLAND CLOUDY    37  26  64 NW14      30.12S
ACCOMACK*      CLOUDY    37  27  65 NW6G18    30.12S
$$

NCZ012>017-030>032-192000-
NORTH CENTRAL AND EASTERN NORTH CAROLINA

CITY           SKY/WX    TMP DP  RH WIND       PRES   REMARKS
ROANOKE RAPIDS CLEAR     45  27  49 CALM      30.11F
RALEIGH        PTSUNNY   52  24  33 VRB6      30.12F
ELIZABETH CITY SUNNY     50  27  40 NE5       30.12F
AHOSKIE*       SUNNY     45  26  47 NW3       30.12F
EDENTON*       SUNNY     48  29  48 N5        30.12S
CURRITUCK*     SUNNY     46  27  47 N7        30.12S
KILL DEVIL HLS SUNNY     44  32  63 N7        30.11S
MANTEO         SUNNY     44  32  63 N7        30.12S
CAPE HATTERAS  SUNNY     47  36  65 NE8       30.11F
TARBORO*       NOT AVBL
GOLDSBORO      SUNNY     51  31  46 NW1       30.10F
WASHINGTON     SUNNY     49  29  46 N6        30.12F
GREENVILLE     SUNNY     48  30  49 N3        30.13F
NEW BERN       SUNNY     54  28  36 VRB5      30.11F
WILMINGTON     SUNNY     59  26  28 N6        30.10F
$$

VAZ048-192000-
ELSEWHERE

CITY           SKY/WX    TMP DP  RH WIND       PRES   REMARKS
HARRISBURG PA  MOSUNNY   40  21  46 N14G25    30.09F
BALTIMORE      PTSUNNY   40  24  53 NW14G22   30.11F
ANNAPOLIS      CLOUDY    39  24  55 NW12      30.12S
ANDREWS AFB    CLOUDY    38  24  56 NW14      30.11F
PHILADELPHIA   MOSUNNY   42  23  46 NW15G25   30.08F
HENDERSON NC     N/A    N/A N/A N/A MISG        N/A
GREENSBORO     PTSUNNY   52  22  30 NW10      30.10S
ROCKY MOUNT    SUNNY     50  26  39 NW7       30.12F
$$

VAZ100-192000-
MARINE

STATION/POSITION TIME  TEMP    WIND        PRES    WAVE   SWELL
                       AIR SEA DIR/SP/G            HT/PER HT/PER
                 (UTC) (F)     (DEG/KT/KT) (MB)    (FT/S) (FT/S)
CAPE MAY NJ      1900   38 41  310/ 19/ 23 1017.9F
LEWES DE         1900   38 42  320/ 17/ 19 1018.8R
15NM E FENWICK I 1900   38 47              1018.3S   3/ 5
OCEAN-CITY-INLET 1900   38 44  340/ 11/ 16 1018.7S
WACHAPREAGUE VA  1900   38 43  300/  6/ 12 1019.8F
THOMAS POINT MD  1900   38 42  310/ 16/ 18 1020.8F
GOOSES REEF MD   1900   38     VRB 14/ 17  1019.0F
COVE POINT MD    1900   37     340/ 15/ 18 1019.8S
SOLOMONS ISLAND  1900      44                N/A
BISHOPS HEAD MD  1900   37 39  320/ 12/ 15 1019.5S
PINEY POINT MD   1900          340/ 14/ 15   N/A
POTOMAC MD       1900   38     320/ 12/ 16 1019.4F
CAMBRIDGE MD     1900   38 40  310/ 12/ 15 1019.5F
LEWISETTA VA     1900   38 42  320/ 12/ 15 1020.1F
RAPPAHANNOCK LGT 1900          340/ 18/ 21 1020.4F
STINGRAY PT      1900   41     340/ 10/ 14 1020.5S
YORK RVR RNG VA  1900   41      20/ 10/ 11 1019.3F
YORKTOWN VA      1900   41 45  310/ 11/ 12 1019.7F
JAMESTOWN VA     1900   41     350/  8/ 10   N/A
DOMINION TERM VA 1900   42     310/ 10/ 13 1019.9F
KIPTOPEKE VA     1900      50  360/ 10/ 14   N/A
CHES BAY BRIDGE  1900   40 46  340/  9/ 11 1019.5F
CAPE HENRY VA    1900   40     330/ 10/ 12 1018.8S
CHESAPEAKE LGHT  1800   39     340/ 14/ 17 1020.5F
WILLOUBY STN VA  1900   41      90/  7/  8 1020.1F
S CRANEY ISL VA  1900          290/  6/  9 1019.7F
CAPE HENRY BUOY  1900      48                N/A     3/ 5
1ST LANDING BUOY 1900   41     350/ 10/ 12 1019.8R
CAPE CHARLES BUO 1900      48                N/A     3/ 4   2/10
64NM E OF VA BCH 1900   42 55  340/ 16/ 19 1018.7F   4/ 5   2/11
DUCK PIER NC     1900   41 47  360/  9/ 12 1018.9S
44100 DUCK FRF   1900      51                N/A     3/ 5
44056 DUCK FRF   1900      48                N/A     3/ 4
OREGON INLET NC  1900   44 50  350/ 11/ 13 1019.6F
HATTERAS NC      1900   46 53   20/  8/ 10 1019.7F
DIAMOND SHLS NC  1900   48                 1019.8F   3/ 8
CAPE LOOKOUT NC  1800   51      20/  6/  8 1019.5F
$$


USA.gov is the U.S. government's official web portal to all federal, state and local government web resources and services.